Location: Unspecified
(0.0000°N, 0.0000°E)
Time: 15:33:24
(UTC+00:00)

Vanguard 2 - Visible Passes

Search period start: 27 September 2016 00:00
Search period end: 07 October 2016 00:00
Orbit: 554 x 2940 km, 32.9° (Epoch: 26 September)

Date Brightness Start Highest point End Pass type
(mag) Time Alt. Az. Time Alt. Az. Time Alt. Az.
27 Sep 11.6 03:03:11 10° SSW 03:14:18 21° SSE 03:26:18 10° ESE visible
27 Sep 11.2 05:13:04 10° SW 05:29:52 47° SSE 05:44:32 10° E visible
27 Sep 7.5 18:35:56 10° NW 18:39:57 50° NE 18:44:01 16° ESE visible
27 Sep 10.3 20:44:30 10° W 20:45:31 15° WSW 20:45:31 15° WSW visible
28 Sep 11.7 01:18:27 12° SSE 01:18:27 12° SSE 01:22:21 10° SSE visible
28 Sep 11.5 03:21:15 10° SSW 03:33:59 26° SSE 03:47:31 10° ESE visible
28 Sep 7.3 18:54:03 10° WNW 18:58:13 84° SW 19:01:56 21° SE visible
29 Sep 11.6 01:35:44 14° S 01:37:25 14° SSE 01:44:37 10° SE visible
29 Sep 11.4 03:39:13 10° SSW 03:53:22 33° SSE 04:08:10 10° E visible
29 Sep 8.2 19:12:34 10° WNW 19:16:38 44° SSW 19:19:52 22° SSE visible
30 Sep 11.5 01:53:07 15° S 01:57:18 17° SSE 02:06:58 10° ESE visible
30 Sep 11.2 03:57:11 10° SSW 04:12:30 42° SSE 04:28:15 10° E visible
30 Sep 9.2 19:31:33 10° W 19:35:15 25° SSW 19:37:49 18° SSE visible
01 Oct 11.4 02:10:37 17° S 02:16:56 22° SSE 02:28:51 10° ESE visible
01 Oct 10.9 04:15:14 10° SW 04:31:26 52° SE 04:47:50 10° ENE visible
01 Oct 9.9 19:51:16 10° WSW 19:54:02 15° SSW 19:55:46 13° S visible
02 Oct 11.2 02:28:14 18° S 02:36:15 28° SSE 02:50:08 10° E visible
02 Oct 10.7 04:33:22 10° SW 04:50:13 66° SE 05:06:59 10° ENE visible
03 Oct 11.7 00:44:29 11° SE 00:44:29 11° SE 00:45:42 10° SE visible
03 Oct 11.1 02:45:58 20° SSW 02:55:18 35° SSE 03:10:45 10° E visible
03 Oct 10.5 04:51:41 10° SW 05:08:54 81° SE 05:25:47 10° ENE visible
03 Oct 8.9 18:18:21 10° W 18:21:45 27° SSW 18:25:42 10° SSE visible
04 Oct 11.5 01:02:19 16° SE 01:02:19 16° SE 01:08:45 10° ESE visible
04 Oct 10.9 03:03:50 21° SSW 03:14:09 45° SE 03:30:46 10° ENE visible
04 Oct 10.4 05:10:13 10° WSW 05:27:33 83° NW 05:44:19 10° NE visible
04 Oct 9.7 18:37:59 10° WSW 18:40:19 15° SSW 18:42:54 10° S visible
05 Oct 11.3 01:20:16 21° SE 01:20:16 21° SE 01:30:49 10° ESE visible
05 Oct 10.6 03:21:47 22° SSW 03:32:51 57° SE 03:50:16 10° ENE visible
06 Oct 11.0 01:38:18 28° SSE 01:38:41 28° SE 01:52:04 10° E visible
06 Oct 10.4 03:39:49 23° SW 03:51:28 72° SE 04:09:23 10° ENE visible
